This is the latest recevied weather packets stored in our database for station/object KF0JHJ. If no packets are shown the sender has not sent any weather packets the latest 1 day(s).
| Time | Temp. | Humidity | Pressure | Rain* | Wind** | Luminosity | Snow |
|---|---|---|---|---|---|---|---|
| 1778013429 | 11.11° C | 41% | 1008.7 hPa | - | 0.45 m/s, 12° | 169 W/m² | - |
| 1778013126 | 10.56° C | 41% | 1008.7 hPa | - | 0 m/s | 254 W/m² | - |
| 1778012821 | 10.56° C | 42% | 1008.8 hPa | - | 2.24 m/s, 331° | 309 W/m² | - |
| 1778012518 | 10.56° C | 43% | 1008.7 hPa | - | 1.79 m/s, 23° | 193 W/m² | - |
| 1778012214 | 10° C | 43% | 1008.9 hPa | - | 0.89 m/s, 287° | 192 W/m² | - |
| 1778011912 | 10.56° C | 43% | 1008.8 hPa | - | 1.34 m/s, 0° | 221 W/m² | - |
| 1778011610 | 10° C | 42% | 1008.9 hPa | - | 1.79 m/s, 336° | 225 W/m² | - |
| 1778011307 | 10.56° C | 41% | 1009 hPa | - | 0 m/s | 175 W/m² | - |
| 1778011002 | 10.56° C | 43% | 1008.9 hPa | - | 0.45 m/s, 0° | 799 W/m² | - |
| 1778010700 | 10° C | 41% | 1008.8 hPa | - | 1.79 m/s, 338° | 287 W/m² | - |
| 1778010397 | 10° C | 42% | 1009.1 hPa | - | 1.34 m/s, 336° | 299 W/m² | - |
| 1778010093 | 10° C | 46% | 1009.1 hPa | - | 0.45 m/s, 20° | 328 W/m² | - |
| 1778009790 | 9.44° C | 43% | 1009 hPa | - | 1.34 m/s, 205° | 133 W/m² | - |
| 1778009487 | 10° C | 45% | 1008.8 hPa | - | 0 m/s | 174 W/m² | - |
| 1778009186 | 9.44° C | 46% | 1009 hPa | - | 0.89 m/s, 77° | 206 W/m² | - |
| 1778008883 | 8.89° C | 45% | 1009 hPa | - | 0 m/s | 116 W/m² | - |
| 1778008581 | 9.44° C | 45% | 1009.1 hPa | - | 0 m/s | 97 W/m² | - |
| 1778008279 | 9.44° C | 45% | 1009.2 hPa | - | 0.89 m/s, 348° | 126 W/m² | - |
| 1778007974 | 9.44° C | 43% | 1009.1 hPa | - | 0.89 m/s, 357° | 206 W/m² | - |
| 1778007669 | 9.44° C | 45% | 1008.9 hPa | - | 1.34 m/s, 333° | 191 W/m² | - |
| 1778007367 | 8.89° C | 47% | 1009.1 hPa | - | 0.89 m/s, 243° | 126 W/m² | - |
| 1778007063 | 9.44° C | 46% | 1009.2 hPa | - | 0.89 m/s, 0° | 147 W/m² | - |
| 1778006759 | 8.89° C | 47% | 1008.9 hPa | - | 0.45 m/s, 346° | 169 W/m² | - |
| 1778006456 | 9.44° C | 46% | 1009 hPa | - | 2.24 m/s, 175° | 190 W/m² | - |
| 1778006153 | 9.44° C | 44% | 1008.9 hPa | - | 1.79 m/s, 244° | 341 W/m² | - |
* Rain since midnight (hover to see other rain measurements)
** Current wind speed in m/s (hover to see current wind gust speed)